Location: Paris
(48.6709°N, 2.3750°E)
Time: 11:16:37
(UTC+02:00)

Gurwin Techsat 1B - Pass Details

Date: 01 July 2022
Orbit: 812 x 813 km, 98.8° (Epoch: 13 August)

Event Time Altitude Azimuth Distance (km) Brightness Sun altitude
Rises 03:59:15 0° 19° (NNE) 3,348 13.7 -13.0°
Reaches altitude 10° 04:01:42 10° 26° (NNE) 2,411 12.6 -12.8°
Maximum altitude 04:06:48 45° 99° (E) 1,099 9.5 -12.4°
Drops below altitude 10° 04:11:52 10° 172° (S) 2,394 10.6 -11.9°
Enters shadow 04:12:17 - 173° (S) 2,550 10.7 -11.9°
